UTOFI Weather Reports


time (UTC)temp
C
wind
direction
speed
KPH
gust
KPH
rain 1hr
cm
rain 24hr
cm
rain mn
cm
humidity
%
barometer
mb
20260506134725 7 250 9.7 12.9 0.00 0.00 0.00 69 1015.4
20260506130725 7 254 9.7 12.9 0.00 0.00 0.00 72 1015.4
20260506124725 7 260 9.7 12.9 0.00 0.00 0.00 75 1015.5
20260506122724 7 257 9.7 12.9 0.00 0.00 0.00 72 1015.4
20260506120725 7 244 9.7 14.5 0.00 0.00 0.00 73 1015.5
20260506114725 8 232 11.3 14.5 0.00 0.00 0.00 69 1015.6
20260506112725 8 242 9.7 14.5 0.00 0.00 0.00 61 1015.4
20260506110725 7 248 8.0 11.3 0.00 0.00 0.00 65 1015.4
20260506104726 8 258 9.7 12.9 0.00 0.00 0.00 57 1015.4
20260506102726 8 263 8.0 11.3 0.00 0.00 0.00 57 1015.5
20260506100727 8 338 9.7 12.9 0.00 0.00 0.00 50 1015.3
20260506094727 8 337 9.7 14.5 0.00 0.00 0.00 56 1015.1
20260506092727 8 337 11.3 14.5 0.00 0.00 0.00 58 1014.8
20260506090726 8 340 11.3 16.1 0.00 0.00 0.00 66 1014.6
20260506084727 7 340 12.9 16.1 0.00 0.00 0.00 66 1014.5
20260506082727 8 303 12.9 16.1 0.00 0.00 0.00 66 1014.4
20260506080726 8 276 11.3 14.5 0.00 0.00 0.00 65 1014.2
20260506072728 7 270 12.9 14.5 0.00 0.00 0.00 69 1014.1
20260506070726 7 301 11.3 16.1 0.00 0.00 0.00 66 1013.9
20260506060726 7 304 12.9 16.1 0.00 0.00 0.00 68 1013.4
20260506050726 6 305 12.9 16.1 0.00 0.00 0.00 73 1012.9
20260506044726 6 293 12.9 17.7 0.00 0.00 0.00 74 1012.8
20260506042726 5 280 14.5 17.7 0.00 0.00 0.00 81 1012.6
20260506040726 5 279 16.1 19.3 0.00 0.00 0.00 83 1012.4
20260506034727 5 281 17.7 22.5 0.00 0.00 0.00 83 1012.1
20260506032725 5 277 17.7 20.9 0.00 0.00 0.00 86 1011.9
20260506030726 5 279 17.7 20.9 0.00 0.00 0.00 83 1011.7
20260506024726 5 269 17.7 20.9 0.00 0.00 0.00 85 1011.6
20260506022725 4 277 16.1 19.3 0.00 0.00 0.00 87 1011.5
20260506020725 4 280 12.9 16.1 0.00 0.00 0.00 89 1011.4
20260506014725 5 268 16.1 17.7 0.00 0.00 0.00 85 1011.2
20260506012725 5 269 17.7 19.3 0.00 0.00 0.00 86 1011.0
20260506010726 5 264 17.7 20.9 0.00 0.00 0.00 83 1010.7
20260506004725 5 269 17.7 19.3 0.00 0.00 0.00 85 1010.5
20260506002725 5 269 14.5 16.1 0.00 0.00 0.00 87 1010.4
20260506000725 5 279 14.5 17.7 0.00 0.00 0.00 85 1010.3
20260505234725 4 290 16.1 20.9 0.00 0.00 0.00 82 1010.2
20260505232725 4 286 14.5 16.1 0.00 0.00 0.00 85 1010.2
20260505230725 4 282 12.9 17.7 0.00 0.00 0.00 86 1010.0
20260505224725 5 275 14.5 17.7 0.00 0.00 0.00 88 1010.0
20260505222725 5 265 17.7 19.3 0.00 0.00 0.00 90 1010.0
20260505220725 5 265 14.5 17.7 0.00 0.00 0.00 91 1009.9
20260505214725 5 273 14.5 17.7 0.00 0.00 0.00 90 1009.9
20260505212725 5 276 14.5 17.7 0.00 0.00 0.00 87 1009.8
20260505210724 5 277 14.5 19.3 0.00 0.00 0.00 88 1009.7
20260505204724 5 253 14.5 17.7 0.00 0.00 0.00 91 1009.5
20260505202725 5 245 14.5 17.7 0.00 0.00 0.00 91 1009.3
20260505200724 5 242 19.3 22.5 0.00 0.00 0.00 91 1009.2
20260505194723 5 253 19.3 22.5 0.00 0.00 0.00 91 1009.2
20260505192724 5 248 19.3 22.5 0.00 0.00 0.00 91 1009.3
20260505190724 5 246 17.7 20.9 0.00 0.00 0.00 91 1009.2
20260505184724 5 244 20.9 24.1 0.00 0.00 0.00 90 1009.0
20260505182723 5 245 20.9 24.1 0.00 0.00 0.00 89 1008.8
20260505180724 5 240 20.9 25.7 0.00 0.00 0.00 87 1008.7
20260505174724 5 240 24.1 29.0 0.00 0.00 0.00 86 1008.5
20260505172723 6 242 22.5 27.4 0.00 0.00 0.00 84 1008.4
20260505170723 6 245 20.9 24.1 0.00 0.00 0.00 82 1008.5
20260505164723 6 251 19.3 22.5 0.00 0.00 0.00 77 1008.5
20260505162723 6 252 17.7 20.9 0.00 0.00 0.00 77 1008.6
20260505160723 6 250 17.7 20.9 0.00 0.00 0.00 76 1008.5
20260505152723 7 303 8.0 11.3 0.00 0.00 0.00 63 1008.4
20260505150723 7 279 8.0 12.9 0.00 0.00 0.00 70 1008.5